Temperature
25 24 24 25 25 25 26 25 25 26 26 25 25 25 25 25 24 24 24 24 23 22 22 21 20 20 19 19 19 19 18 18 17 17 17 16 16 16 16 15 15 15 15 15
25 24 25 26 26 26 26 25 25 26 26 26 25 25 25 25 25 24 24 24 23 23 22 21 20 20 19 19 19 19 18 18 17 17 17 16 16 16 16 15 15 15 15 15
24 25 26 26 26 25 25 25 25 25 26 26 25 24 25 25 25 25 24 24 24 23 22 21 20 20 19 19 19 18 18 18 17 17 17 16 16 16 15 15 15 15 15 15
25 26 26 25 25 25 24 26 26 25 25 24 25 23 25 25 25 25 24 24 23 23 22 21 20 20 19 19 19 18 18 18 17 17 17 16 16 16 15 15 15 15 14 14
25 26 25 25 25 26 25 26 25 25 24 24 25 24 25 25 24 24 24 24 23 23 22 21 20 20 19 19 19 18 18 18 17 17 17 16 16 15 15 15 15 15 14 14
25 26 26 26 26 26 26 25 25 25 24 23 24 24 24 25 25 24 24 24 23 23 22 21 21 20 19 19 19 18 18 18 17 17 17 16 16 15 15 15 15 15 14 14
25 25 26 26 25 25 25 24 23 23 22 23 25 25 24 25 25 25 24 23 23 22 22 21 20 20 19 19 18 18 18 17 17 17 16 16 16 15 15 15 15 15 14 14
24 24 25 25 25 25 25 24 22 22 22 24 25 25 24 25 25 25 24 23 23 22 21 21 20 19 19 18 18 18 17 17 17 17 16 16 16 15 15 15 15 14 14 14
24 24 26 26 26 25 24 24 25 24 23 23 24 24 24 25 24 24 24 23 22 22 21 21 20 19 19 18 18 18 17 17 17 16 16 16 16 15 15 15 14 14 14 14
24 23 25 25 25 25 25 25 24 23 22 22 23 24 23 23 23 23 23 23 22 22 21 20 20 19 18 18 18 17 17 17 17 16 16 16 15 15 15 14 14 14 14 13
23 23 24 24 24 24 24 24 24 23 23 22 22 23 25 24 24 23 23 23 22 22 21 20 20 19 18 18 17 17 17 17 16 16 16 15 15 15 15 14 14 14 14 13
23 23 22 24 25 25 25 24 24 22 22 23 22 22 25 24 24 24 23 23 22 21 21 20 19 19 18 17 17 17 17 16 16 16 16 15 15 15 15 14 14 14 13 13
22 22 21 22 23 24 24 24 24 24 23 22 21 22 24 24 24 23 23 22 21 21 20 20 19 18 18 17 17 17 16 16 16 16 15 15 15 14 14 14 14 13 13 13
21 21 21 21 22 22 23 23 23 23 21 22 22 22 23 23 22 22 22 21 21 20 20 19 19 18 17 17 16 16 16 16 16 15 15 15 14 14 14 14 13 13 13 13
21 21 22 22 23 23 22 23 23 22 22 22 22 22 23 22 22 22 22 21 20 20 19 19 18 18 17 17 16 16 16 15 15 15 14 14 14 14 13 13 13 13 13 12
21 21 21 21 23 23 22 22 22 22 22 22 22 22 23 23 22 22 21 20 20 19 19 18 18 17 17 16 16 16 15 15 15 14 14 14 13 13 13 13 13 12 12 12
21 21 20 20 21 22 21 22 22 22 22 22 21 21 22 22 22 21 20 20 19 18 18 17 17 17 16 16 16 15 15 15 14 14 14 13 13 13 13 12 12 12 12 12
20 20 20 20 20 19 21 22 22 22 22 22 22 22 22 21 21 20 20 19 19 18 17 17 17 16 16 16 15 15 14 14 14 13 13 13 13 13 12 12 12 11 11 11
21 20 19 19 19 20 21 22 22 21 21 22 21 21 21 21 20 19 19 18 18 17 17 16 16 16 15 15 15 14 14 14 13 13 13 13 12 12 12 12 11 11 11 11
20 20 19 18 18 18 20 21 21 21 19 21 21 21 20 20 18 18 18 17 17 16 16 16 15 15 15 14 14 14 13 13 13 13 12 12 12 12 12 12 11 11 10 10
19 18 18 17 18 19 20 20 20 18 18 20 20 20 19 19 18 17 17 16 16 15 15 15 14 14 14 14 13 13 13 12 12 12 12 12 11 11 11 11 11 10 10 10
19 18 18 18 17 18 19 19 19 18 19 19 19 19 18 18 17 16 16 15 15 15 14 14 13 13 13 13 13 13 12 12 12 11 11 11 11 11 10 10 10 10 10 10
19 19 18 18 18 19 19 19 18 18 18 18 18 17 17 16 16 15 15 15 14 14 13 13 13 12 12 12 12 12 12 11 11 11 11 10 10 10 10 10 10 10 9 9
19 19 18 18 18 18 18 18 18 17 17 17 17 16 16 16 15 15 14 14 14 13 13 12 12 12 12 11 11 11 11 11 11 10 10 10 10 10 9 9 9 9 9 9
17 18 17 17 17 17 17 17 17 17 16 16 16 16 15 15 14 14 14 13 13 13 12 12 12 11 11 11 11 11 10 10 10 10 10 10 9 9 9 9 8 8 8 9
17 17 16 16 17 17 17 16 16 16 16 15 15 15 14 14 14 13 13 13 12 12 12 11 11 11 10 10 10 10 10 10 9 9 9 9 9 9 9 8 8 8 8 8
Wind_Speed
8 7 8 7 8 8 7 6 6 3 5 7 8 7 7 8 9 9 9 8 8 9 9 9 8 6 6 6 5 6 7 6 4 3 3 2 2 1 2 2 3 5 5 5
7 10 9 7 7 8 8 8 7 5 5 6 6 8 7 8 10 8 8 7 8 8 10 9 9 7 6 6 5 5 6 7 6 4 3 3 2 2 2 2 3 4 4 5
10 5 5 7 8 8 9 8 7 6 4 7 7 9 9 9 10 9 8 6 6 7 9 11 10 9 7 6 7 6 6 7 6 5 4 3 2 1 2 2 1 1 3 3
9 6 5 7 8 8 8 6 7 7 7 6 7 6 6 7 8 8 7 6 6 6 6 9 10 10 9 7 7 7 7 7 6 6 5 4 3 2 2 2 2 1 2 3
6 6 7 9 8 7 6 5 7 9 9 10 9 8 5 7 8 8 8 7 7 7 7 8 9 8 9 8 7 7 6 7 7 6 5 4 3 3 2 3 3 2 1 2
9 6 6 6 6 6 6 7 10 10 8 9 11 8 3 4 7 7 7 7 7 7 7 7 8 8 7 7 6 7 6 6 6 6 6 6 5 4 4 3 3 2 1 1
11 11 9 6 7 7 8 7 4 5 6 7 7 6 2 4 6 6 7 5 5 6 6 6 8 8 7 7 7 6 7 6 6 7 6 6 6 5 5 4 3 3 2 1
9 9 10 8 8 7 8 9 6 4 5 4 3 3 3 8 8 6 5 5 5 5 6 7 7 7 7 7 6 6 7 6 6 6 6 6 6 4 3 4 3 3 2 2
6 4 6 8 8 8 8 9 9 9 10 8 4 3 5 8 7 6 5 5 4 5 6 7 8 8 7 7 6 6 7 7 6 6 5 5 5 5 4 3 3 3 2 2
7 7 5 5 6 9 10 8 6 6 6 7 6 5 4 8 7 6 5 5 4 5 5 6 7 7 7 7 6 6 6 7 6 6 5 4 4 5 4 4 4 3 3 3
7 8 7 6 9 9 9 10 8 6 6 5 5 2 3 6 6 5 5 5 4 4 5 5 6 6 6 6 6 6 5 6 6 6 6 6 5 4 5 4 4 3 3 3
6 6 9 9 8 7 8 10 9 7 7 6 6 1 3 4 5 4 4 5 4 3 3 4 6 6 6 5 6 6 5 4 5 5 5 5 5 4 4 4 4 4 4 3
4 5 7 7 6 7 8 9 9 8 7 7 7 2 3 4 4 4 4 4 3 3 3 3 4 5 5 5 4 5 5 5 4 5 5 5 5 5 5 4 3 4 3 3
3 7 9 9 5 5 7 9 10 9 7 9 8 6 2 2 2 3 3 3 3 3 2 2 3 4 4 5 4 4 5 5 5 5 5 5 5 4 4 4 3 3 3 3
5 9 11 12 10 9 10 11 11 11 11 11 9 7 4 2 2 2 2 2 3 3 2 2 3 3 4 4 4 4 4 4 5 5 5 4 4 4 3 3 3 3 3 3
7 9 11 13 12 11 13 13 12 12 11 11 10 8 3 1 1 2 2 2 2 2 1 1 2 3 4 4 4 4 4 4 4 5 5 4 4 4 3 3 2 2 3 2
7 9 10 10 10 11 13 10 11 10 10 9 8 4 1 1 1 2 1 1 2 2 2 1 1 1 3 3 4 3 3 4 4 4 4 4 4 3 3 3 2 3 3 2
9 9 7 8 10 12 4 1 2 4 6 5 4 2 1 0 2 2 1 1 2 2 2 2 1 1 1 2 3 3 3 3 4 4 3 4 4 3 3 3 2 2 2 2
9 8 6 7 9 9 5 3 3 4 6 3 3 2 0 1 1 1 3 4 4 4 3 3 2 1 2 3 3 3 3 3 3 3 3 3 4 4 4 4 3 3 2 2
7 7 6 7 8 8 2 1 2 3 4 1 1 1 1 0 1 1 4 6 5 5 4 3 3 2 2 2 3 3 2 3 2 2 3 3 4 4 4 4 3 2 2 3
7 7 9 10 10 6 1 1 0 2 1 4 3 3 2 1 2 3 5 5 4 4 4 4 3 2 2 2 2 2 2 2 2 2 2 2 3 4 4 3 2 2 2 2
7 6 8 8 9 6 2 1 1 2 4 4 4 3 3 4 4 4 4 3 3 3 3 3 2 2 2 2 2 2 1 2 2 2 1 2 2 3 3 3 3 3 3 3
5 5 4 4 3 1 1 1 2 3 3 3 3 3 3 2 1 2 2 1 2 2 2 2 2 2 2 2 2 2 1 2 2 2 1 2 2 2 2 2 3 3 3 3
4 4 6 6 4 2 2 3 2 2 3 3 3 3 2 1 1 1 1 0 1 1 2 2 2 2 1 1 2 2 2 2 2 2 1 2 2 2 2 1 1 2 2 2
6 5 7 9 6 4 3 3 3 3 2 2 2 1 1 1 1 1 1 0 0 1 1 2 2 1 1 2 1 2 2 1 1 1 1 1 2 2 2 1 1 1 1 2
8 8 7 7 5 5 4 3 3 3 3 3 2 2 1 1 2 1 1 1 1 1 1 2 2 2 1 1 1 1 1 1 0 0 0 1 1 1 2 2 1 2 2 2
Wind_Direction
206 221 224 218 223 250 265 267 263 234 188 216 235 231 212 194 200 210 204 196 183 176 167 158 154 154 153 153 149 137 134 127 119 108 106 107 100 87 66 67 53 53 49 59
217 227 229 233 236 244 256 257 259 243 198 226 245 250 227 217 206 209 206 196 185 175 165 160 159 161 165 156 158 147 135 133 128 129 132 134 126 121 106 68 57 58 56 59
231 235 221 227 232 242 254 261 264 270 240 242 252 250 229 214 210 200 205 195 187 182 174 164 163 164 163 163 162 157 146 139 135 134 127 128 112 105 105 107 89 58 65 60
244 232 229 237 241 246 254 269 278 274 269 257 238 265 232 202 197 188 185 183 185 183 176 161 164 165 164 170 161 158 155 145 146 145 146 148 141 143 147 143 145 145 102 85
243 223 227 236 240 250 262 273 273 270 269 271 257 259 234 188 186 180 181 185 182 178 177 165 164 166 165 168 162 159 156 150 152 148 149 156 150 159 147 139 140 149 123 108
251 249 242 247 246 245 258 260 255 250 257 257 251 247 245 192 174 167 168 174 179 176 174 168 160 155 157 154 155 152 158 157 155 156 162 162 161 166 154 151 151 152 143 153
235 227 219 229 239 226 234 247 252 232 224 241 230 231 216 112 115 128 142 154 162 160 159 158 155 152 152 152 156 160 163 167 167 170 174 168 169 175 168 166 167 162 157 150
244 230 204 206 230 235 229 235 245 265 266 284 257 233 129 111 105 105 123 134 136 151 154 151 151 149 155 159 163 173 173 175 173 178 177 166 166 163 162 164 156 154 152 153
277 251 178 194 218 237 240 237 253 274 285 283 246 191 140 128 131 136 131 132 145 157 156 157 153 152 157 162 172 182 177 175 173 176 173 167 167 156 161 166 151 148 153 154
286 282 240 203 215 230 241 262 264 258 270 271 265 241 178 157 154 149 145 148 149 148 153 156 156 159 163 166 173 179 173 171 172 174 172 168 161 156 160 160 159 157 154 147
273 271 255 221 219 236 227 235 246 254 259 272 282 315 91 132 141 148 150 139 135 142 149 153 151 159 160 163 166 175 179 169 168 171 170 169 171 167 166 164 166 160 155 160
256 268 262 246 233 235 250 244 245 250 261 264 274 281 70 97 121 132 133 128 129 129 132 144 147 147 154 164 170 171 174 173 169 168 164 168 170 169 169 171 172 170 169 167
297 265 263 250 228 211 234 246 251 260 271 267 269 246 124 116 118 124 124 122 127 126 124 131 135 144 151 158 167 170 170 170 165 162 163 170 175 176 181 185 183 177 174 169
290 263 259 264 277 268 255 259 256 253 256 264 262 258 222 153 154 141 140 142 128 123 132 136 139 145 149 158 158 166 173 168 164 162 168 175 178 181 184 184 181 177 178 186
246 262 267 271 272 265 266 263 258 255 258 265 269 271 261 227 213 158 141 132 137 137 139 145 152 158 157 160 161 165 166 168 165 164 170 175 172 167 170 178 181 180 185 189
240 264 270 269 269 265 263 258 256 255 257 260 262 269 265 252 180 136 131 127 125 127 135 152 159 160 162 164 164 162 168 171 166 170 171 165 162 155 160 177 184 169 166 165
252 261 271 273 274 267 257 251 250 249 252 255 256 260 246 226 121 122 124 117 112 98 100 79 23 165 171 172 159 161 169 162 168 165 152 149 151 154 161 170 165 160 164 162
264 269 269 270 269 255 254 249 285 277 273 264 257 249 255 102 74 82 86 99 99 90 90 88 49 32 95 145 143 153 152 165 163 153 148 147 154 152 156 160 163 169 176 172
242 252 262 263 266 267 255 232 250 262 269 266 255 255 288 93 110 117 69 66 68 66 63 58 42 31 67 104 113 118 125 130 137 147 154 162 163 166 168 173 178 180 179 178
231 237 247 258 263 264 292 69 18 302 267 29 346 339 34 123 256 91 65 64 63 59 56 50 38 38 64 93 111 123 130 123 137 148 162 167 165 169 179 179 174 170 179 188
218 223 234 251 260 265 2 81 91 245 331 41 30 22 8 352 26 76 81 71 66 61 58 57 60 62 69 83 109 124 116 119 120 131 158 163 165 166 169 165 164 166 178 191
240 235 233 240 251 258 92 145 223 19 41 37 23 17 24 49 50 69 81 78 81 78 73 71 66 61 64 81 100 99 112 110 105 115 137 162 163 161 162 164 171 172 175 188
249 259 268 258 254 26 76 37 37 23 2 11 14 24 35 53 63 74 91 95 103 104 110 107 101 85 68 68 95 100 77 94 108 123 149 165 156 143 146 168 176 177 181 188
261 284 283 281 273 298 324 336 351 352 339 353 18 30 24 357 9 106 126 115 90 101 118 123 128 128 99 74 86 108 102 103 122 152 162 146 148 150 153 158 172 175 190 189
284 280 271 273 280 290 279 291 309 324 323 326 338 10 346 330 301 240 197 194 95 80 129 137 140 137 120 95 89 95 103 122 170 184 173 144 153 158 150 130 120 169 153 176
269 270 265 270 288 288 291 317 310 303 298 295 290 281 268 267 260 247 225 203 186 173 157 149 147 147 138 134 125 111 109 122 152 215 154 130 124 152 149 147 114 68 117 124
Height
1488 1491 1491 1489 1488 1488 1488 1491 1492 1489 1487 1491 1494 1493 1493 1494 1496 1498 1499 1501 1504 1507 1510 1513 1515 1518 1520 1522 1523 1524 1526 1527 1528 1529 1530 1530 1531 1532 1532 1533 1533 1533 1533 1533
1488 1489 1485 1483 1484 1486 1487 1492 1492 1487 1485 1488 1492 1491 1489 1490 1491 1494 1495 1498 1501 1504 1507 1510 1513 1515 1518 1520 1521 1523 1524 1525 1527 1528 1528 1529 1530 1531 1531 1532 1532 1533 1533 1533
1487 1483 1480 1482 1485 1487 1488 1490 1490 1490 1486 1486 1490 1493 1487 1485 1487 1490 1492 1495 1498 1501 1504 1507 1510 1513 1515 1517 1519 1521 1523 1524 1525 1526 1527 1528 1529 1530 1530 1531 1531 1532 1532 1532
1481 1479 1481 1483 1485 1486 1491 1484 1485 1487 1492 1494 1491 1502 1487 1482 1483 1486 1489 1493 1496 1498 1501 1504 1507 1510 1513 1515 1517 1519 1521 1522 1523 1525 1526 1527 1527 1528 1529 1530 1530 1531 1531 1532
1480 1478 1481 1484 1483 1483 1485 1483 1485 1487 1490 1493 1488 1495 1487 1478 1483 1484 1486 1490 1493 1496 1499 1501 1504 1507 1510 1512 1514 1517 1519 1520 1521 1523 1524 1525 1526 1527 1528 1528 1529 1530 1530 1531
1477 1476 1477 1479 1479 1481 1482 1484 1485 1485 1491 1503 1489 1492 1490 1479 1478 1481 1484 1487 1490 1493 1496 1499 1502 1505 1507 1510 1512 1514 1516 1518 1519 1521 1522 1523 1524 1525 1526 1527 1528 1528 1529 1530
1479 1475 1475 1477 1481 1481 1483 1492 1502 1504 1505 1499 1478 1484 1486 1474 1473 1477 1482 1486 1488 1491 1494 1497 1499 1502 1505 1507 1509 1511 1514 1516 1517 1519 1520 1521 1523 1524 1525 1525 1526 1527 1528 1528
1483 1482 1473 1475 1479 1482 1482 1488 1503 1511 1505 1492 1480 1484 1479 1472 1474 1478 1481 1484 1487 1490 1492 1495 1497 1500 1502 1505 1507 1509 1511 1513 1515 1517 1518 1519 1521 1522 1523 1524 1525 1525 1526 1527
1481 1479 1469 1471 1473 1476 1482 1483 1480 1490 1491 1496 1485 1478 1476 1472 1476 1479 1481 1484 1487 1489 1491 1494 1496 1498 1500 1503 1505 1507 1509 1511 1513 1514 1516 1517 1519 1520 1521 1522 1523 1524 1525 1525
1477 1482 1473 1471 1474 1474 1476 1478 1484 1492 1502 1504 1490 1482 1482 1478 1477 1478 1481 1483 1486 1488 1490 1493 1495 1496 1498 1500 1502 1505 1506 1508 1510 1512 1513 1515 1516 1517 1518 1519 1520 1521 1523 1523
1477 1482 1477 1474 1477 1477 1477 1480 1481 1485 1487 1499 1501 1492 1469 1472 1474 1477 1479 1482 1485 1487 1489 1491 1493 1495 1497 1499 1500 1502 1504 1506 1507 1509 1510 1512 1513 1515 1516 1517 1518 1519 1520 1521
1477 1480 1481 1474 1468 1468 1471 1474 1478 1490 1490 1485 1493 1492 1468 1470 1472 1475 1478 1481 1484 1486 1488 1490 1491 1493 1495 1496 1498 1499 1501 1503 1504 1505 1507 1509 1510 1512 1513 1514 1515 1516 1517 1518
1479 1481 1487 1483 1478 1472 1472 1471 1472 1476 1482 1487 1494 1491 1470 1471 1474 1476 1478 1481 1483 1485 1487 1488 1489 1491 1492 1494 1496 1497 1498 1500 1501 1502 1504 1505 1507 1509 1510 1511 1512 1513 1514 1515
1481 1481 1485 1490 1482 1475 1475 1474 1472 1476 1486 1486 1484 1481 1474 1473 1475 1476 1478 1480 1482 1484 1485 1487 1488 1489 1490 1492 1493 1494 1496 1497 1498 1499 1501 1502 1504 1505 1507 1508 1509 1510 1511 1513
1480 1481 1477 1473 1470 1471 1472 1473 1472 1474 1475 1481 1478 1475 1473 1472 1473 1475 1477 1479 1481 1483 1484 1485 1486 1487 1488 1489 1490 1492 1493 1494 1496 1497 1498 1499 1501 1502 1504 1505 1506 1507 1508 1509
1477 1479 1476 1475 1469 1469 1470 1468 1469 1470 1470 1471 1472 1473 1469 1469 1471 1474 1476 1478 1480 1481 1482 1483 1484 1485 1486 1487 1488 1489 1490 1491 1493 1494 1495 1496 1497 1499 1500 1501 1503 1504 1505 1506
1475 1477 1480 1479 1471 1470 1473 1465 1464 1465 1464 1467 1471 1470 1468 1469 1471 1473 1476 1477 1479 1480 1481 1482 1482 1483 1483 1484 1485 1486 1487 1489 1490 1491 1492 1493 1494 1496 1497 1498 1500 1501 1501 1503
1475 1476 1477 1478 1477 1483 1468 1459 1460 1462 1462 1462 1464 1466 1467 1469 1471 1473 1475 1476 1477 1479 1479 1480 1481 1481 1481 1482 1483 1484 1485 1486 1487 1488 1489 1490 1491 1492 1494 1495 1496 1497 1498 1500
1470 1474 1479 1480 1480 1473 1463 1459 1460 1463 1464 1461 1463 1464 1466 1468 1470 1473 1474 1475 1476 1477 1478 1478 1479 1479 1479 1479 1480 1481 1482 1483 1484 1484 1485 1487 1488 1489 1490 1491 1493 1494 1495 1496
1468 1470 1477 1478 1482 1479 1467 1460 1459 1463 1468 1462 1463 1464 1466 1468 1472 1474 1473 1474 1475 1475 1476 1476 1477 1477 1477 1478 1478 1479 1480 1480 1481 1482 1483 1484 1485 1486 1487 1488 1490 1491 1492 1493
1471 1473 1477 1478 1477 1469 1462 1461 1461 1473 1472 1465 1465 1466 1467 1469 1472 1473 1473 1473 1474 1474 1475 1475 1475 1476 1476 1476 1476 1477 1478 1478 1479 1480 1481 1481 1482 1483 1485 1486 1487 1488 1489 1491
1467 1470 1471 1472 1476 1474 1462 1462 1465 1468 1465 1466 1466 1467 1468 1470 1471 1472 1472 1473 1473 1473 1473 1473 1474 1474 1475 1475 1475 1475 1476 1476 1477 1478 1478 1479 1480 1481 1482 1483 1484 1485 1486 1487
1461 1463 1464 1465 1467 1463 1462 1463 1464 1465 1466 1467 1467 1468 1469 1469 1470 1471 1471 1472 1472 1472 1472 1472 1472 1473 1473 1473 1473 1473 1474 1474 1475 1475 1476 1476 1477 1478 1479 1480 1481 1482 1483 1484
1459 1459 1461 1462 1460 1461 1462 1463 1464 1465 1466 1466 1467 1468 1468 1469 1469 1470 1470 1470 1470 1470 1471 1471 1471 1471 1471 1471 1471 1472 1472 1472 1473 1473 1474 1474 1475 1475 1476 1477 1478 1479 1480 1481
1461 1460 1461 1462 1461 1461 1462 1463 1464 1464 1465 1466 1466 1466 1467 1468 1468 1468 1469 1468 1468 1469 1469 1469 1469 1469 1470 1470 1470 1470 1470 1470 1471 1471 1472 1472 1473 1473 1474 1474 1475 1476 1477 1478
1461 1461 1462 1461 1461 1461 1461 1462 1462 1463 1464 1464 1464 1464 1465 1466 1466 1466 1467 1466 1467 1467 1467 1467 1467 1467 1468 1468 1468 1468 1468 1468 1468 1469 1470 1470 1470 1471 1471 1472 1473 1474 1475 1475